Regional Weather Roundup
Issued by NWS Austin/San Antonio, TX

Home | Current Version | Previous Version | Text Only | Print | Product List | Glossary On
Versions: 1 2 3 4 5 6 7 8 9 10 11 12 13 14 15 16 17 18 19 20 21 22 23 24 25 26 27 28 29 30 31 32 33 34 35 36 37 38 39 40 41 42 43 44 45 46 47 48 49 50
000
ASUS44 KEWX 210410
RWREWX
SOUTH TEXAS REGIONAL WEATHER ROUNDUP
NATIONAL WEATHER SERVICE AUSTIN/SAN ANTONIO TX
1100 PM CDT SAT APR 20 2019

NOTE: "FAIR" INDICATED FEW OR NO CLOUDS BELOW 12,000 FEET WITH NO
SIGNIFICANT WEATHER AND/OR OBSTRUCTIONS TO VISIBILITY.

* - THESE STATIONS ARE NOT NWS OR FAA STATIONS...AND ARE NOT SUBJECT
    TO NWS AND FAA QUALITY CONTROL.

TXZ171-172-183>190-210500-
TEXAS HILL COUNTRY AND EDWARDS PLATEAU

CITY           SKY/WX    TMP DP  RH WIND       PRES   REMARKS
JUNCTION       CLEAR     68  50  52 S7        29.97R
*LLANO         CLEAR     66  54  63 CALM      29.99S
BURNET         CLEAR     68  53  58 S5        30.00R
*HORSESHOE BAY CLEAR     68  53  59 S7        29.97S
*KERRVILLE     CLEAR     63  54  72 S8        30.00R
*FREDERICKSBRG CLEAR     65  50  59 S3        29.99S
*ROCKSPRINGS     N/A     66  48  52 SE12      30.03S
*BOERNE STAGE  CLEAR     64  54  68 CALM      30.02R
*CASTROVILLE   CLEAR     68  52  56 SE9       30.02R
HONDO          CLEAR     69  56  62 SE12      29.99R
*UVALDE        CLEAR     65  55  70 E7        29.98R
DEL RIO        CLEAR     74  52  46 E13G20    29.90R
LAUGHLIN AFB   CLEAR     71  53  51 E13       29.91R
CARRIZO SPRGS  CLEAR     72  55  56 SE13G18   29.93R
*FAITH RANCH   CLEAR     77  55  47 SE12      29.92S
$$

TXZ173-191>194-202-209-217>225-228-210500-
CENTRAL AND SOUTH CENTRAL TEXAS

CITY           SKY/WX    TMP DP  RH WIND       PRES   REMARKS
GEORGETOWN     CLEAR     68  54  60 S7        29.99S
AUSTIN/BERGSTM CLEAR     66  57  72 S9        29.98R
AUSTIN/MABRY   CLEAR     69  55  60 S8G17     29.99R
*AUSTIN/EXEC   CLEAR     66  55  68 S8        29.99R
*LAGO VISTA    CLEAR     67  53  60 S6        29.99S
SAN MARCOS     CLEAR     66  58  75 S12       30.00R
NEW BRAUNFELS  CLEAR     65  57  75 S10       29.99R
RANDOLPH AFB   CLEAR     65  54  66 SE12      30.00R
PT SAN ANTONIO CLEAR     66  54  65 SE14      29.98R
SAN ANTONIO    PTCLDY    68  54  60 S15G23    30.00R
STINSON FIELD  CLEAR     67  51  56 SE9       29.99R
*LA GRANGE     CLEAR     65  58  78 S7        29.99S
*GIDDINGS      CLEAR     69  59  71 S6        30.01R HAZE
*GONZALES      CLEAR     65  58  79 S7        30.00S
$$

TXZ163>164-176>182-195>201-210>213-226-227-235-210500-
SOUTHEAST TEXAS

CITY           SKY/WX    TMP DP  RH WIND       PRES   REMARKS
COLLEGE STN    CLEAR     64  52  64 S6        30.00R
*BRYAN         CLEAR     62  51  66 SE7       30.01R
*CALDWELL      CLEAR     62  54  75 S9        30.00R
*CROCKETT        N/A     54  52  94 CALM      30.03F
*BRENHAM       CLEAR     65  54  67 S7        30.01S
HUNTSVILLE     CLEAR     62  51  67 S3        30.01R
CONROE         CLEAR     55  54  96 CALM      30.03R
HOUSTON BUSH   CLEAR     65  52  62 S6        30.03R
HOUSTON HOBBY  FAIR      63  51  65 S7        30.03R
*HOUSTON SW AP FAIR      57  51  80 CALM      30.04S
PEARLAND       FAIR      62  53  72 S3        30.05R
HOUSTON HOOKS  FAIR      64  52  64 S7        30.02R
ELLINGTON FLD  CLEAR     63  50  63 S6        30.03
SUGAR LAND     FAIR      62  51  67 S7        30.03R
*HOUSTON EXEC  FAIR      59  54  82 S6        30.04R
*CLEVELAND MUN FAIR      57  55  90 CALM      30.04S
*WHARTON       CLEAR     60  53  78 S3        30.04R
*COLUMBUS      FAIR      62  54  76 S6        30.03S
*EAGLE LAKE    CLEAR     62  55  78 S7        30.02
$$

TXZ214>216-236>238-210500-
THE UPPER TEXAS COAST

CITY           SKY/WX    TMP DP  RH WIND       PRES   REMARKS
*ORANGE        FAIR      55  55 100 CALM      30.06S
PORT ARTHUR    FAIR      59  51  75 SW5       30.04R
GALVESTON      FAIR      67  53  61 S12       30.05R
ANGLETON       FAIR      58  52  80 S5        30.04S
*BAY CITY      CLEAR     59  55  85 S5        30.03S
PALACIOS       CLEAR     70  61  73 S10       30.03R
$$

TXZ229>234-239>247-210500-
TEXAS COASTAL BEND AND RIO GRANDE PLAINS

CITY           SKY/WX    TMP DP  RH WIND       PRES   REMARKS
VICTORIA       CLEAR     62  58  86 SE7       30.02S
*BEEVILLE      CLEAR     62  56  79 SE6       30.01S
ROCKPORT       CLEAR     69  61  75 S9G17     30.02R
*PORT ARANSAS  CLEAR     71  63  75 SE14G21   30.04R
*PORT LAVACA   CLEAR     65  60  86 S6        30.03F
*INGLESIDE     CLEAR     69  62  78 S10       30.02S
CORPUS CHRISTI PTCLDY    67  60  78 SE10      30.01R
CORPUS NAS     PTCLDY    74  64  71 S16       30.02R
*ROBSTOWN      NOT AVBL
ALICE          CLEAR     65  59  81 SE9       30.00R
KINGSVILLE NAS PTCLDY    69  61  75 SE12      30.01R
COTULLA        CLEAR     69  55  60 SE14      29.96R
LAREDO         CLEAR     76  53  44 SE21G31   29.95R
$$

TXZ248>255-210500-
DEEP SOUTH TEXAS

CITY           SKY/WX    TMP DP  RH WIND       PRES   REMARKS
BROWNSVILLE    FAIR      71  65  81 SE9       30.02S
PORT ISABEL    FAIR      70  62  76 SE13      30.01R
HARLINGEN      CLEAR     67  61  81 SE10      30.00S
*HEBBRONVILLE  CLEAR     68  53  58 SE9       30.01R
MCALLEN        CLEAR     71  63  75 SE13      29.99S
*WESLACO       CLOUDY    69  62  77 S12       29.99
FALFURRIAS     CLEAR     69  57  64 SE9       30.00S
EDINBURG       FAIR      71  61  70 SE9       30.00S
*ZAPATA        FAIR      74  52  46 SE14G24   29.97R
$$

TXZ213>215-236>238-242>244-246-247-251-254-255-210500-
CMAN STATIONS

STATION/POSITION TIME  TEMP    WIND        PRES    WAVE
                       AIR SEA DIR/SP/G            HT/PER
                 (UTC) (F)     (DEG/KT/KT) (MB)    (FT/S)
SABINE PASS      0336   62 71  200/  5/  8 1019.0
SEA RIM ST PARK  0400   67     200/  9/ 11 1017.3
NORTH JETTY/GLS  0336   69 71  200/ 13/ 15 1016.8
EAGLE POINT      0336   68 71  220/ 12/ 13 1017.2
MORGANS POINT    0336   67 70  180/  5/  8 1017.0
PORT O`CONNOR    0336   70 71  170/ 15/ 17 1016.7
PORT ARANSAS     0400   71 72  150/ 17/ 18 1016.5
MALAQUITE BEACH  0336   72 74  130/ 19/ 22 1015.7
BAFFIN BAY       0336   71 74  140/ 13/ 16 1016.6
PORT ISABEL      0336   72 76  140/ 13/ 16 1016.7
$$




USA.gov is the U.S. government's official web portal to all federal, state and local government web resources and services.